| time (UTC) | temp F | wind direction | speed knots | gust knots | rain 1hr in | rain 24hr in | rain mn in | humidity % | barometer mb |
| 20260904102033 | 74 | 0 | 0.0 | 0.9 | 0.00 | 0.00 | 0.00 | 96 | 1012.7 |
| 20260904101556 | 73 | 0 | 0.0 | 0.0 | 0.00 | 0.00 | 0.00 | 96 | 1012.7 |
| 20260904101029 | 73 | 0 | 0.0 | 0.0 | 0.00 | 0.00 | 0.00 | 96 | 1012.6 |
| 20260904100529 | 73 | 0 | 0.0 | 0.0 | 0.00 | 0.00 | 0.00 | 97 | 1012.8 |
| 20260904100053 | 73 | 0 | 0.0 | 0.0 | 0.00 | 0.00 | 0.00 | 97 | 1012.8 |
| 20260904095529 | 73 | 0 | 0.0 | 0.0 | 0.00 | 0.00 | 0.00 | 96 | 1012.9 |
| 20260904095028 | 74 | 0 | 0.0 | 0.0 | 0.00 | 0.00 | 0.00 | 96 | 1012.9 |
| 20260904094547 | 74 | 0 | 0.0 | 0.0 | 0.00 | 0.00 | 0.00 | 96 | 1012.8 |
| 20260904094030 | 74 | 0 | 0.0 | 0.0 | 0.00 | 0.00 | 0.00 | 96 | 1013.0 |
| 20260904093528 | 74 | 0 | 0.0 | 0.0 | 0.00 | 0.00 | 0.00 | 96 | 1013.0 |
| 20260904093100 | 74 | 0 | 0.0 | 0.0 | 0.00 | 0.00 | 0.00 | 96 | 1013.0 |
| 20260904092530 | 74 | 0 | 0.0 | 0.0 | 0.00 | 0.00 | 0.00 | 96 | 1013.1 |
| 20260904092029 | 74 | 0 | 0.0 | 0.0 | 0.00 | 0.00 | 0.00 | 96 | 1013.1 |
| 20260904091550 | 74 | 0 | 0.0 | 0.0 | 0.00 | 0.00 | 0.00 | 95 | 1013.1 |
| 20260904091027 | 74 | 0 | 0.0 | 0.0 | 0.00 | 0.00 | 0.00 | 95 | 1013.1 |
| 20260904090530 | 74 | 0 | 0.0 | 0.0 | 0.00 | 0.00 | 0.00 | 95 | 1013.1 |
| 20260904090046 | 74 | 0 | 0.0 | 0.0 | 0.00 | 0.00 | 0.00 | 95 | 1013.1 |
| 20260904085533 | 75 | 0 | 0.0 | 0.0 | 0.00 | 0.00 | 0.00 | 94 | 1013.1 |
| 20260904085030 | 75 | 0 | 0.0 | 0.0 | 0.00 | 0.00 | 0.00 | 94 | 1013.1 |
| 20260904084545 | 75 | 0 | 0.0 | 0.0 | 0.00 | 0.00 | 0.00 | 94 | 1013.1 |
| 20260904084027 | 75 | 0 | 0.0 | 0.0 | 0.00 | 0.00 | 0.00 | 94 | 1013.1 |
| 20260904083529 | 75 | 0 | 0.0 | 0.0 | 0.00 | 0.00 | 0.00 | 94 | 1013.1 |
| 20260904083054 | 76 | 0 | 0.0 | 0.0 | 0.00 | 0.00 | 0.00 | 93 | 1013.0 |
| 20260904082528 | 76 | 0 | 0.0 | 0.0 | 0.00 | 0.00 | 0.00 | 93 | 1013.0 |
| 20260904082026 | 76 | 0 | 0.0 | 0.0 | 0.00 | 0.00 | 0.00 | 93 | 1012.9 |
| 20260904081546 | 76 | 0 | 0.0 | 0.0 | 0.00 | 0.00 | 0.00 | 93 | 1012.8 |
| 20260904081030 | 76 | 0 | 0.0 | 0.0 | 0.00 | 0.00 | 0.00 | 93 | 1012.7 |
| 20260904080528 | 76 | 0 | 0.0 | 0.9 | 0.00 | 0.00 | 0.00 | 93 | 1012.7 |
| 20260904080045 | 76 | 221 | 0.0 | 0.9 | 0.00 | 0.00 | 0.00 | 93 | 1012.6 |
| 20260904075529 | 76 | 221 | 0.0 | 0.9 | 0.00 | 0.00 | 0.00 | 93 | 1012.5 |
| 20260904075026 | 76 | 0 | 0.0 | 3.5 | 0.00 | 0.00 | 0.00 | 94 | 1012.4 |
| 20260904074546 | 76 | 0 | 0.0 | 3.5 | 0.00 | 0.00 | 0.00 | 94 | 1012.5 |
| 20260904074029 | 76 | 0 | 0.0 | 1.7 | 0.00 | 0.00 | 0.00 | 95 | 1012.3 |
| 20260904073528 | 76 | 240 | 0.0 | 1.7 | 0.00 | 0.00 | 0.00 | 96 | 1012.3 |
| 20260904073051 | 75 | 255 | 0.0 | 0.9 | 0.00 | 0.00 | 0.00 | 96 | 1012.3 |
| 20260904072528 | 75 | 0 | 0.0 | 0.9 | 0.00 | 0.00 | 0.00 | 97 | 1012.4 |
| 20260904072029 | 75 | 0 | 0.0 | 0.9 | 0.00 | 0.00 | 0.00 | 97 | 1012.5 |
| 20260904071604 | 75 | 0 | 0.0 | 0.0 | 0.00 | 0.00 | 0.00 | 98 | 1012.5 |
| 20260904071029 | 74 | 0 | 0.0 | 0.0 | 0.00 | 0.00 | 0.00 | 97 | 1012.4 |
| 20260904070529 | 74 | 0 | 0.0 | 0.0 | 0.00 | 0.00 | 0.00 | 97 | 1012.7 |
| 20260904070047 | 75 | 0 | 0.0 | 0.0 | 0.00 | 0.00 | 0.00 | 96 | 1012.8 |
| 20260904065528 | 75 | 0 | 0.0 | 0.0 | 0.00 | 0.00 | 0.00 | 96 | 1012.9 |
| 20260904065028 | 75 | 0 | 0.0 | 0.0 | 0.00 | 0.00 | 0.00 | 96 | 1013.0 |
| 20260904064547 | 75 | 0 | 0.0 | 0.0 | 0.00 | 0.00 | 0.00 | 96 | 1012.9 |
| 20260904064028 | 75 | 0 | 0.0 | 0.0 | 0.00 | 0.00 | 0.00 | 96 | 1013.0 |
| 20260904063528 | 75 | 0 | 0.0 | 0.0 | 0.00 | 0.00 | 0.00 | 95 | 1013.2 |
| 20260904063042 | 75 | 0 | 0.0 | 0.0 | 0.00 | 0.00 | 0.00 | 95 | 1013.2 |
| 20260904062530 | 76 | 0 | 0.0 | 0.0 | 0.00 | 0.00 | 0.00 | 95 | 1013.3 |
| 20260904062027 | 76 | 0 | 0.0 | 0.0 | 0.00 | 0.00 | 0.00 | 95 | 1013.4 |
| 20260904061548 | 76 | 0 | 0.0 | 0.0 | 0.00 | 0.00 | 0.00 | 95 | 1013.5 |
| 20260904061029 | 76 | 0 | 0.0 | 0.0 | 0.00 | 0.00 | 0.00 | 94 | 1013.5 |
| 20260904060529 | 76 | 0 | 0.0 | 0.0 | 0.00 | 0.00 | 0.00 | 94 | 1013.5 |
| 20260904060058 | 76 | 0 | 0.0 | 0.0 | 0.00 | 0.00 | 0.00 | 94 | 1013.6 |
| 20260904055528 | 76 | 0 | 0.0 | 0.0 | 0.00 | 0.00 | 0.00 | 93 | 1013.6 |
| 20260904055026 | 77 | 0 | 0.0 | 0.0 | 0.00 | 0.00 | 0.00 | 93 | 1013.5 |
| 20260904054547 | 77 | 0 | 0.0 | 0.0 | 0.00 | 0.00 | 0.00 | 92 | 1013.5 |
| 20260904054030 | 77 | 0 | 0.0 | 0.0 | 0.00 | 0.00 | 0.00 | 92 | 1013.5 |
| 20260904053528 | 77 | 0 | 0.0 | 0.0 | 0.00 | 0.00 | 0.00 | 92 | 1013.8 |
| 20260904053058 | 77 | 0 | 0.0 | 0.0 | 0.00 | 0.00 | 0.00 | 92 | 1013.5 |
| 20260904052529 | 77 | 0 | 0.0 | 0.0 | 0.00 | 0.00 | 0.00 | 91 | 1013.3 |
| 20260904052027 | 78 | 0 | 0.0 | 0.0 | 0.00 | 0.00 | 0.00 | 91 | 1013.5 |
| 20260904051549 | 78 | 0 | 0.0 | 0.0 | 0.00 | 0.00 | 0.00 | 90 | 1013.4 |
| 20260904051030 | 78 | 0 | 0.0 | 0.0 | 0.00 | 0.00 | 0.00 | 89 | 1013.3 |
| 20260904050615 | 79 | 0 | 0.0 | 0.0 | 0.00 | 0.00 | 0.00 | 88 | 1013.3 |
| 20260904050049 | 79 | 0 | 0.0 | 1.7 | 0.00 | 0.00 | 0.00 | 88 | 1013.3 |
| 20260904045528 | 79 | 0 | 0.0 | 1.7 | 0.00 | 0.00 | 0.00 | 88 | 1013.4 |
| 20260904045029 | 79 | 0 | 0.0 | 0.9 | 0.00 | 0.00 | 0.00 | 88 | 1013.3 |
| 20260904044546 | 80 | 0 | 0.0 | 0.9 | 0.00 | 0.00 | 0.00 | 88 | 1013.4 |
| 20260904044028 | 80 | 215 | 0.0 | 0.9 | 0.00 | 0.00 | 0.00 | 88 | 1013.4 |
| 20260904043528 | 80 | 0 | 0.0 | 0.9 | 0.00 | 0.00 | 0.00 | 89 | 1013.4 |
| 20260904043043 | 80 | 185 | 0.0 | 0.9 | 0.00 | 0.00 | 0.00 | 89 | 1013.5 |
| 20260904042528 | 80 | 143 | 0.0 | 0.9 | 0.00 | 0.00 | 0.00 | 89 | 1013.5 |
| 20260904042029 | 80 | 0 | 0.0 | 0.9 | 0.00 | 0.00 | 0.00 | 89 | 1013.4 |
| 20260904041551 | 80 | 194 | 0.0 | 1.7 | 0.00 | 0.00 | 0.00 | 89 | 1013.5 |
| 20260904041030 | 80 | 0 | 0.0 | 1.7 | 0.00 | 0.00 | 0.00 | 89 | 1013.5 |
| 20260904040527 | 80 | 0 | 0.0 | 1.7 | 0.00 | 0.00 | 0.00 | 89 | 1013.5 |
| 20260904040049 | 80 | 0 | 0.0 | 0.9 | 0.00 | 0.00 | 0.00 | 89 | 1013.5 |
| 20260904035528 | 80 | 0 | 0.0 | 0.9 | 0.00 | 0.00 | 0.00 | 89 | 1013.5 |
| 20260904035028 | 80 | 0 | 0.0 | 0.9 | 0.00 | 0.00 | 0.00 | 89 | 1013.5 |
| 20260904034554 | 80 | 0 | 0.0 | 0.9 | 0.00 | 0.00 | 0.00 | 89 | 1013.5 |
| 20260904034026 | 80 | 0 | 0.0 | 0.9 | 0.00 | 0.00 | 0.00 | 90 | 1013.5 |
| 20260904033529 | 80 | 0 | 0.0 | 0.9 | 0.00 | 0.00 | 0.00 | 90 | 1013.5 |
| 20260904033050 | 80 | 0 | 0.0 | 0.0 | 0.00 | 0.00 | 0.00 | 90 | 1013.6 |
| 20260904032528 | 80 | 0 | 0.0 | 0.0 | 0.00 | 0.00 | 0.00 | 90 | 1013.5 |
| 20260904032028 | 81 | 0 | 0.0 | 0.0 | 0.00 | 0.00 | 0.00 | 90 | 1013.5 |
| 20260904031551 | 80 | 0 | 0.0 | 0.0 | 0.00 | 0.00 | 0.00 | 90 | 1013.5 |
| 20260904031028 | 80 | 0 | 0.0 | 0.0 | 0.00 | 0.00 | 0.00 | 91 | 1013.6 |
| 20260904030529 | 80 | 0 | 0.0 | 0.0 | 0.00 | 0.00 | 0.00 | 91 | 1013.7 |
| 20260904030048 | 80 | 0 | 0.0 | 0.0 | 0.00 | 0.00 | 0.00 | 91 | 1013.6 |
| 20260904025529 | 80 | 0 | 0.0 | 0.0 | 0.00 | 0.00 | 0.00 | 90 | 1013.7 |
| 20260904025029 | 80 | 0 | 0.0 | 0.0 | 0.00 | 0.00 | 0.00 | 90 | 1013.7 |
| 20260904024547 | 81 | 0 | 0.0 | 0.0 | 0.00 | 0.00 | 0.00 | 89 | 1013.7 |
| 20260904024027 | 81 | 0 | 0.0 | 0.0 | 0.00 | 0.00 | 0.00 | 89 | 1013.7 |
| 20260904023532 | 81 | 0 | 0.0 | 0.0 | 0.00 | 0.00 | 0.00 | 88 | 1013.6 |
| 20260904023044 | 82 | 0 | 0.0 | 0.0 | 0.00 | 0.00 | 0.00 | 88 | 1013.5 |
| 20260904022528 | 82 | 0 | 0.0 | 0.0 | 0.00 | 0.00 | 0.00 | 87 | 1013.5 |
| 20260904022030 | 82 | 0 | 0.0 | 0.0 | 0.00 | 0.00 | 0.00 | 87 | 1013.5 |
| 20260904021555 | 82 | 0 | 0.0 | 0.0 | 0.00 | 0.00 | 0.00 | 87 | 1013.4 |
| 20260904021031 | 83 | 0 | 0.0 | 0.0 | 0.00 | 0.00 | 0.00 | 86 | 1013.3 |
| 20260904020530 | 83 | 0 | 0.0 | 0.0 | 0.00 | 0.00 | 0.00 | 86 | 1013.4 |
| 20260904020050 | 83 | 0 | 0.0 | 0.0 | 0.00 | 0.00 | 0.00 | 86 | 1013.2 |
| 20260904015529 | 84 | 0 | 0.0 | 0.0 | 0.00 | 0.00 | 0.00 | 85 | 1013.2 |
| 20260904015031 | 84 | 0 | 0.0 | 0.0 | 0.00 | 0.00 | 0.00 | 85 | 1013.2 |
| 20260904014549 | 84 | 0 | 0.0 | 0.0 | 0.00 | 0.00 | 0.00 | 84 | 1013.1 |
| 20260904014029 | 84 | 0 | 0.0 | 0.0 | 0.00 | 0.00 | 0.00 | 84 | 1013.0 |
| 20260904013529 | 84 | 0 | 0.0 | 0.0 | 0.00 | 0.00 | 0.00 | 84 | 1012.9 |
| 20260904013106 | 84 | 205 | 0.0 | 0.0 | 0.00 | 0.00 | 0.00 | 84 | 1012.8 |
| 20260904012528 | 85 | 0 | 0.0 | 0.0 | 0.00 | 0.00 | 0.00 | 83 | 1012.7 |
| 20260904012030 | 85 | 0 | 0.0 | 1.7 | 0.00 | 0.00 | 0.00 | 83 | 1012.5 |
| 20260904011558 | 85 | 0 | 0.0 | 1.7 | 0.00 | 0.00 | 0.00 | 82 | 1012.5 |
| 20260904011029 | 85 | 150 | 0.0 | 2.6 | 0.00 | 0.00 | 0.00 | 82 | 1012.4 |
| 20260904010527 | 85 | 191 | 0.9 | 2.6 | 0.00 | 0.00 | 0.00 | 80 | 1012.2 |
| 20260904010050 | 85 | 162 | 0.0 | 2.6 | 0.00 | 0.00 | 0.00 | 80 | 1012.0 |
| 20260904005528 | 86 | 147 | 0.0 | 1.7 | 0.00 | 0.00 | 0.00 | 79 | 1011.9 |
| 20260904005029 | 86 | 0 | 0.0 | 0.9 | 0.00 | 0.00 | 0.00 | 78 | 1011.9 |
| 20260904004548 | 86 | 0 | 0.0 | 1.7 | 0.00 | 0.00 | 0.00 | 78 | 1011.8 |
| 20260904004031 | 86 | 158 | 0.0 | 1.7 | 0.00 | 0.00 | 0.00 | 78 | 1011.8 |
| 20260904003528 | 86 | 140 | 0.9 | 1.7 | 0.00 | 0.00 | 0.00 | 78 | 1011.9 |
| 20260904003055 | 87 | 160 | 0.0 | 0.9 | 0.00 | 0.00 | 0.00 | 77 | 1011.8 |
| 20260904002527 | 87 | 0 | 0.0 | 0.9 | 0.00 | 0.00 | 0.00 | 76 | 1012.1 |
| 20260904002029 | 87 | 0 | 0.0 | 1.7 | 0.00 | 0.00 | 0.00 | 76 | 1012.0 |
| 20260904001604 | 87 | 146 | 0.0 | 1.7 | 0.00 | 0.00 | 0.00 | 75 | 1012.0 |
| 20260904001028 | 88 | 0 | 0.0 | 1.7 | 0.00 | 0.00 | 0.00 | 75 | 1012.0 |
| 20260904000529 | 88 | 195 | 0.0 | 1.7 | 0.00 | 0.00 | 0.00 | 75 | 1012.0 |
| 20260904000051 | 88 | 154 | 0.0 | 2.6 | 0.00 | 0.00 | 0.00 | 74 | 1012.1 |
| 20260903235530 | 88 | 145 | 0.9 | 2.6 | 0.00 | 0.00 | 0.00 | 74 | 1012.2 |
| 20260903235031 | 89 | 139 | 0.0 | 1.7 | 0.00 | 0.00 | 0.00 | 73 | 1012.1 |
| 20260903234548 | 89 | 0 | 0.0 | 1.7 | 0.00 | 0.00 | 0.00 | 73 | 1012.2 |
| 20260903234027 | 89 | 241 | 0.0 | 0.9 | 0.00 | 0.00 | 0.00 | 73 | 1012.2 |
| 20260903233532 | 89 | 0 | 0.0 | 0.9 | 0.00 | 0.00 | 0.00 | 72 | 1012.1 |
| 20260903233042 | 89 | 240 | 0.0 | 1.7 | 0.00 | 0.00 | 0.00 | 72 | 1012.1 |
| 20260903232528 | 90 | 0 | 0.0 | 1.7 | 0.00 | 0.00 | 0.00 | 72 | 1012.1 |
| 20260903232028 | 90 | 217 | 0.0 | 4.3 | 0.00 | 0.00 | 0.00 | 72 | 1012.3 |
| 20260903231554 | 90 | 250 | 0.9 | 5.2 | 0.00 | 0.00 | 0.00 | 71 | 1012.2 |
| 20260903231027 | 90 | 162 | 0.9 | 5.2 | 0.00 | 0.00 | 0.00 | 71 | 1012.5 |
| 20260903230529 | 90 | 202 | 1.7 | 5.2 | 0.00 | 0.00 | 0.00 | 70 | 1012.3 |
| 20260903230046 | 91 | 210 | 1.7 | 5.2 | 0.00 | 0.00 | 0.00 | 70 | 1012.5 |
| 20260903225529 | 91 | 197 | 1.7 | 4.3 | 0.00 | 0.00 | 0.00 | 71 | 1012.5 |
| 20260903225029 | 91 | 206 | 0.9 | 5.2 | 0.00 | 0.00 | 0.00 | 70 | 1012.4 |
| 20260903224542 | 91 | 208 | 1.7 | 5.2 | 0.00 | 0.00 | 0.00 | 70 | 1012.5 |
| 20260903224027 | 91 | 206 | 0.0 | 3.5 | 0.00 | 0.00 | 0.00 | 70 | 1012.5 |
| 20260903223528 | 91 | 157 | 0.9 | 3.5 | 0.00 | 0.00 | 0.00 | 71 | 1012.6 |
| 20260903223056 | 91 | 155 | 0.9 | 3.5 | 0.00 | 0.00 | 0.00 | 70 | 1012.5 |
| 20260903222526 | 91 | 195 | 0.0 | 3.5 | 0.00 | 0.00 | 0.00 | 72 | 1012.5 |
| 20260903222028 | 91 | 205 | 0.9 | 3.5 | 0.00 | 0.00 | 0.00 | 71 | 1012.5 |
| 20260903221548 | 91 | 215 | 0.9 | 3.5 | 0.00 | 0.00 | 0.00 | 70 | 1012.6 |
| 20260903221028 | 91 | 141 | 0.9 | 2.6 | 0.00 | 0.00 | 0.00 | 68 | 1012.5 |
| 20260903220527 | 92 | 0 | 0.9 | 2.6 | 0.00 | 0.00 | 0.00 | 67 | 1012.6 |
| 20260903220106 | 92 | 205 | 0.9 | 3.5 | 0.00 | 0.00 | 0.00 | 66 | 1012.5 |
| 20260903215529 | 93 | 210 | 0.9 | 3.5 | 0.00 | 0.00 | 0.00 | 65 | 1012.5 |
| 20260903215028 | 94 | 264 | 0.9 | 4.3 | 0.00 | 0.00 | 0.00 | 62 | 1012.5 |
| 20260903214553 | 94 | 168 | 0.9 | 4.3 | 0.00 | 0.00 | 0.00 | 61 | 1012.5 |
| 20260903214030 | 95 | 142 | 1.7 | 4.3 | 0.00 | 0.00 | 0.00 | 60 | 1012.6 |
| 20260903213533 | 95 | 202 | 0.9 | 4.3 | 0.00 | 0.00 | 0.00 | 59 | 1012.5 |
| 20260903213049 | 95 | 166 | 0.9 | 2.6 | 0.00 | 0.00 | 0.00 | 61 | 1012.5 |
| 20260903212532 | 95 | 175 | 0.9 | 3.5 | 0.00 | 0.00 | 0.00 | 59 | 1012.6 |
| 20260903212030 | 95 | 221 | 1.7 | 3.5 | 0.00 | 0.00 | 0.00 | 60 | 1012.6 |
| 20260903211544 | 95 | 253 | 1.7 | 4.3 | 0.00 | 0.00 | 0.00 | 60 | 1012.6 |
| 20260903211030 | 95 | 214 | 1.7 | 5.2 | 0.00 | 0.00 | 0.00 | 61 | 1012.7 |
| 20260903210529 | 95 | 130 | 1.7 | 5.2 | 0.00 | 0.00 | 0.00 | 61 | 1012.7 |
| 20260903210100 | 95 | 187 | 2.6 | 5.2 | 0.00 | 0.00 | 0.00 | 61 | 1012.8 |
| 20260903205530 | 95 | 201 | 0.9 | 3.5 | 0.00 | 0.00 | 0.00 | 63 | 1012.9 |
| 20260903205028 | 94 | 193 | 0.9 | 3.5 | 0.00 | 0.00 | 0.00 | 63 | 1012.9 |
| 20260903204548 | 94 | 162 | 1.7 | 4.3 | 0.00 | 0.00 | 0.00 | 62 | 1012.9 |
| 20260903204029 | 94 | 170 | 1.7 | 4.3 | 0.00 | 0.00 | 0.00 | 62 | 1012.9 |
| 20260903203530 | 94 | 182 | 2.6 | 4.3 | 0.00 | 0.00 | 0.00 | 64 | 1012.9 |
| 20260903203048 | 94 | 216 | 1.7 | 4.3 | 0.00 | 0.00 | 0.00 | 65 | 1013.0 |
| 20260903202532 | 94 | 161 | 2.6 | 4.3 | 0.00 | 0.00 | 0.00 | 65 | 1013.1 |
| 20260903202031 | 94 | 223 | 1.7 | 4.3 | 0.00 | 0.00 | 0.00 | 64 | 1013.1 |
| 20260903201545 | 94 | 172 | 1.7 | 3.5 | 0.00 | 0.00 | 0.00 | 64 | 1013.2 |
| 20260903201030 | 94 | 224 | 0.9 | 4.3 | 0.00 | 0.00 | 0.00 | 67 | 1013.1 |
| 20260903200530 | 93 | 208 | 0.9 | 4.3 | 0.00 | 0.00 | 0.00 | 65 | 1013.2 |
| 20260903200105 | 93 | 210 | 1.7 | 4.3 | 0.00 | 0.00 | 0.00 | 66 | 1013.2 |
| 20260903195530 | 93 | 206 | 1.7 | 4.3 | 0.00 | 0.00 | 0.00 | 65 | 1013.3 |
| 20260903195030 | 93 | 203 | 0.9 | 4.3 | 0.00 | 0.00 | 0.00 | 64 | 1013.3 |
| 20260903194554 | 93 | 178 | 1.7 | 4.3 | 0.00 | 0.00 | 0.00 | 65 | 1013.5 |
| 20260903194030 | 93 | 201 | 1.7 | 5.2 | 0.00 | 0.00 | 0.00 | 65 | 1013.5 |
| 20260903193530 | 93 | 165 | 2.6 | 5.2 | 0.00 | 0.00 | 0.00 | 65 | 1013.5 |
| 20260903193058 | 93 | 207 | 0.9 | 5.2 | 0.00 | 0.00 | 0.00 | 64 | 1013.7 |
| 20260903192529 | 92 | 229 | 1.7 | 5.2 | 0.00 | 0.00 | 0.00 | 64 | 1013.7 |
| 20260903192030 | 92 | 207 | 2.6 | 5.2 | 0.00 | 0.00 | 0.00 | 66 | 1013.7 |
| 20260903191546 | 93 | 127 | 1.7 | 5.2 | 0.00 | 0.00 | 0.00 | 65 | 1013.8 |
| 20260903191030 | 93 | 156 | 1.7 | 3.5 | 0.00 | 0.00 | 0.00 | 66 | 1013.8 |
| 20260903190530 | 92 | 116 | 0.9 | 5.2 | 0.00 | 0.00 | 0.00 | 66 | 1013.9 |
| 20260903190051 | 91 | 123 | 1.7 | 5.2 | 0.00 | 0.00 | 0.00 | 68 | 1013.9 |
| 20260903185530 | 91 | 173 | 0.9 | 2.6 | 0.00 | 0.00 | 0.00 | 67 | 1013.9 |
| 20260903185030 | 91 | 162 | 0.9 | 3.5 | 0.00 | 0.00 | 0.00 | 68 | 1013.9 |
| 20260903184552 | 91 | 98 | 1.7 | 3.5 | 0.00 | 0.00 | 0.00 | 68 | 1013.9 |
| 20260903184030 | 90 | 316 | 0.9 | 3.5 | 0.00 | 0.00 | 0.00 | 67 | 1014.1 |
| 20260903183527 | 90 | 15 | 0.9 | 6.1 | 0.00 | 0.00 | 0.00 | 69 | 1014.1 |
| 20260903183048 | 89 | 320 | 1.7 | 6.1 | 0.00 | 0.00 | 0.00 | 69 | 1014.2 |
| 20260903182530 | 89 | 340 | 2.6 | 6.1 | 0.00 | 0.00 | 0.00 | 68 | 1014.2 |
| 20260903182030 | 90 | 300 | 0.9 | 5.2 | 0.00 | 0.00 | 0.00 | 69 | 1014.4 |
| 20260903181553 | 90 | 22 | 0.9 | 4.3 | 0.00 | 0.00 | 0.00 | 68 | 1014.2 |
| 20260903181029 | 90 | 342 | 1.7 | 5.2 | 0.00 | 0.00 | 0.00 | 66 | 1014.4 |
| 20260903180531 | 90 | 293 | 1.7 | 5.2 | 0.00 | 0.00 | 0.00 | 68 | 1014.3 |
| 20260903180054 | 90 | 323 | 1.7 | 7.0 | 0.00 | 0.00 | 0.00 | 67 | 1014.2 |
| 20260903175530 | 89 | 306 | 0.9 | 7.0 | 0.00 | 0.00 | 0.00 | 68 | 1014.4 |
| 20260903175030 | 90 | 310 | 2.6 | 7.8 | 0.00 | 0.00 | 0.00 | 66 | 1014.5 |
| 20260903174550 | 90 | 56 | 1.7 | 7.8 | 0.00 | 0.00 | 0.00 | 67 | 1014.5 |
| 20260903174030 | 90 | 312 | 1.7 | 7.8 | 0.00 | 0.00 | 0.00 | 68 | 1014.6 |
| 20260903173530 | 89 | 317 | 2.6 | 9.6 | 0.00 | 0.00 | 0.00 | 69 | 1014.7 |
| 20260903173050 | 89 | 336 | 3.5 | 9.6 | 0.00 | 0.00 | 0.00 | 69 | 1014.7 |
| 20260903172533 | 89 | 354 | 3.5 | 9.6 | 0.00 | 0.00 | 0.00 | 69 | 1014.8 |
| 20260903172030 | 89 | 311 | 2.6 | 5.2 | 0.00 | 0.00 | 0.00 | 70 | 1014.6 |
| 20260903171546 | 89 | 163 | 1.7 | 5.2 | 0.00 | 0.00 | 0.00 | 69 | 1014.8 |
| 20260903171029 | 89 | 343 | 2.6 | 7.0 | 0.00 | 0.00 | 0.00 | 71 | 1014.7 |
| 20260903170529 | 89 | 153 | 2.6 | 7.0 | 0.00 | 0.00 | 0.00 | 72 | 1014.6 |
| 20260903170054 | 90 | 352 | 2.6 | 7.0 | 0.00 | 0.00 | 0.00 | 72 | 1014.7 |
| 20260903165528 | 90 | 311 | 1.7 | 5.2 | 0.00 | 0.00 | 0.00 | 73 | 1014.5 |
| 20260903165028 | 89 | 275 | 1.7 | 5.2 | 0.00 | 0.00 | 0.00 | 76 | 1014.6 |
| 20260903164552 | 88 | 0 | 0.9 | 3.5 | 0.00 | 0.00 | 0.00 | 78 | 1014.5 |
| 20260903164028 | 88 | 14 | 0.9 | 3.5 | 0.00 | 0.00 | 0.00 | 75 | 1014.5 |
| 20260903163528 | 88 | 31 | 0.9 | 3.5 | 0.00 | 0.00 | 0.00 | 76 | 1014.6 |
| 20260903163047 | 88 | 21 | 0.9 | 3.5 | 0.00 | 0.00 | 0.00 | 75 | 1014.6 |
| 20260903162528 | 88 | 59 | 0.9 | 5.2 | 0.00 | 0.00 | 0.00 | 75 | 1014.5 |
| 20260903162028 | 88 | 299 | 2.6 | 5.2 | 0.00 | 0.00 | 0.00 | 73 | 1014.7 |
| 20260903161554 | 89 | 345 | 0.9 | 4.3 | 0.00 | 0.00 | 0.00 | 72 | 1014.2 |
| 20260903161029 | 90 | 335 | 0.0 | 4.3 | 0.00 | 0.00 | 0.00 | 72 | 1014.0 |
| 20260903160527 | 90 | 344 | 0.9 | 5.2 | 0.00 | 0.00 | 0.00 | 72 | 1013.9 |
| 20260903160051 | 90 | 239 | 1.7 | 6.1 | 0.00 | 0.00 | 0.00 | 71 | 1013.9 |
| 20260903155529 | 90 | 347 | 1.7 | 6.1 | 0.00 | 0.00 | 0.00 | 74 | 1013.9 |
| 20260903155033 | 90 | 208 | 1.7 | 6.1 | 0.00 | 0.00 | 0.00 | 71 | 1013.9 |
| 20260903154546 | 90 | 242 | 1.7 | 4.3 | 0.00 | 0.00 | 0.00 | 72 | 1014.0 |
| 20260903154029 | 89 | 251 | 1.7 | 5.2 | 0.00 | 0.00 | 0.00 | 72 | 1013.8 |
| 20260903153533 | 89 | 234 | 1.7 | 5.2 | 0.00 | 0.00 | 0.00 | 74 | 1013.9 |
| 20260903153057 | 89 | 130 | 1.7 | 6.1 | 0.00 | 0.00 | 0.00 | 74 | 1013.9 |
| 20260903152530 | 88 | 179 | 0.9 | 6.1 | 0.00 | 0.00 | 0.00 | 74 | 1014.0 |
| 20260903152032 | 88 | 210 | 1.7 | 3.5 | 0.00 | 0.00 | 0.00 | 74 | 1013.9 |
| 20260903151607 | 89 | 248 | 1.7 | 3.5 | 0.00 | 0.00 | 0.00 | 73 | 1013.9 |
| 20260903151027 | 88 | 188 | 0.9 | 3.5 | 0.00 | 0.00 | 0.00 | 74 | 1013.9 |
| 20260903150530 | 88 | 206 | 0.9 | 5.2 | 0.00 | 0.00 | 0.00 | 75 | 1013.9 |
| 20260903150058 | 87 | 193 | 1.7 | 5.2 | 0.00 | 0.00 | 0.00 | 76 | 1013.9 |
| 20260903145529 | 87 | 212 | 2.6 | 4.3 | 0.00 | 0.00 | 0.00 | 75 | 1013.9 |
| 20260903145030 | 87 | 172 | 1.7 | 4.3 | 0.00 | 0.00 | 0.00 | 75 | 1013.9 |
| 20260903144547 | 87 | 18 | 1.7 | 4.3 | 0.00 | 0.00 | 0.00 | 75 | 1013.9 |
| 20260903144028 | 87 | 172 | 0.0 | 5.2 | 0.00 | 0.00 | 0.00 | 77 | 1013.9 |
| 20260903143529 | 86 | 220 | 1.7 | 5.2 | 0.00 | 0.00 | 0.00 | 76 | 1014.0 |
| 20260903143102 | 86 | 117 | 0.9 | 4.3 | 0.00 | 0.00 | 0.00 | 76 | 1013.9 |
| 20260903142530 | 85 | 168 | 0.9 | 4.3 | 0.00 | 0.00 | 0.00 | 77 | 1013.9 |
| 20260903142029 | 85 | 195 | 0.9 | 6.1 | 0.00 | 0.00 | 0.00 | 78 | 1013.9 |
| 20260903141553 | 84 | 202 | 3.5 | 6.1 | 0.00 | 0.00 | 0.00 | 77 | 1013.8 |
| 20260903141031 | 84 | 184 | 1.7 | 5.2 | 0.00 | 0.00 | 0.00 | 79 | 1013.8 |
| 20260903140530 | 84 | 243 | 2.6 | 5.2 | 0.00 | 0.00 | 0.00 | 79 | 1013.8 |
| 20260903140047 | 84 | 257 | 1.7 | 4.3 | 0.00 | 0.00 | 0.00 | 79 | 1013.9 |
| 20260903135530 | 84 | 219 | 1.7 | 4.3 | 0.00 | 0.00 | 0.00 | 79 | 1013.9 |
| 20260903135030 | 83 | 199 | 1.7 | 5.2 | 0.00 | 0.00 | 0.00 | 80 | 1013.8 |
| 20260903134551 | 83 | 154 | 1.7 | 5.2 | 0.00 | 0.00 | 0.00 | 80 | 1013.8 |
| 20260903134029 | 83 | 149 | 2.6 | 4.3 | 0.00 | 0.00 | 0.00 | 81 | 1013.8 |
| 20260903133534 | 83 | 225 | 1.7 | 4.3 | 0.00 | 0.00 | 0.00 | 82 | 1013.8 |
| 20260903133057 | 83 | 143 | 0.9 | 4.3 | 0.00 | 0.00 | 0.00 | 83 | 1013.9 |
| 20260903132529 | 82 | 188 | 0.9 | 2.6 | 0.00 | 0.00 | 0.00 | 83 | 1013.9 |
| 20260903132029 | 81 | 165 | 0.9 | 2.6 | 0.00 | 0.00 | 0.00 | 84 | 1013.9 |
| 20260903131556 | 81 | 181 | 0.9 | 2.6 | 0.00 | 0.00 | 0.00 | 84 | 1013.9 |
| 20260903131029 | 81 | 200 | 0.0 | 2.6 | 0.00 | 0.00 | 0.00 | 85 | 1013.9 |
| 20260903130531 | 80 | 209 | 0.9 | 2.6 | 0.00 | 0.00 | 0.00 | 85 | 1014.0 |
| 20260903130051 | 80 | 149 | 0.9 | 1.7 | 0.00 | 0.00 | 0.00 | 86 | 1014.0 |
| 20260903125530 | 80 | 0 | 0.0 | 1.7 | 0.00 | 0.00 | 0.00 | 87 | 1014.1 |
| 20260903125028 | 79 | 198 | 0.0 | 1.7 | 0.00 | 0.00 | 0.00 | 87 | 1014.0 |
| 20260903124547 | 79 | 154 | 0.0 | 1.7 | 0.00 | 0.00 | 0.00 | 88 | 1014.1 |
| 20260903124027 | 79 | 0 | 0.0 | 1.7 | 0.00 | 0.00 | 0.00 | 88 | 1014.1 |
| 20260903123532 | 78 | 217 | 0.0 | 0.9 | 0.00 | 0.00 | 0.00 | 88 | 1014.1 |
| 20260903123054 | 78 | 159 | 0.0 | 0.9 | 0.00 | 0.00 | 0.00 | 89 | 1014.1 |
| 20260903122530 | 77 | 0 | 0.0 | 0.0 | 0.00 | 0.00 | 0.00 | 91 | 1014.1 |
| 20260903122030 | 76 | 0 | 0.0 | 0.0 | 0.00 | 0.00 | 0.00 | 92 | 1014.2 |
| 20260903121551 | 75 | 0 | 0.0 | 0.0 | 0.00 | 0.00 | 0.00 | 94 | 1014.1 |
| 20260903121030 | 74 | 0 | 0.0 | 0.0 | 0.00 | 0.00 | 0.00 | 96 | 1014.0 |
| 20260903120527 | 74 | 0 | 0.0 | 0.0 | 0.00 | 0.00 | 0.00 | 96 | 1014.1 |
| 20260903120053 | 73 | 0 | 0.0 | 0.0 | 0.00 | 0.00 | 0.00 | 97 | 1014.1 |
| 20260903115529 | 73 | 0 | 0.0 | 0.0 | 0.00 | 0.00 | 0.00 | 96 | 1014.1 |
| 20260903115033 | 73 | 0 | 0.0 | 0.0 | 0.00 | 0.00 | 0.00 | 96 | 1014.0 |
| 20260903114543 | 73 | 0 | 0.0 | 0.0 | 0.00 | 0.00 | 0.00 | 96 | 1014.0 |
| 20260903114029 | 73 | 0 | 0.0 | 0.0 | 0.00 | 0.00 | 0.00 | 96 | 1013.9 |
| 20260903113529 | 73 | 0 | 0.0 | 0.0 | 0.00 | 0.00 | 0.00 | 96 | 1013.9 |
| 20260903113054 | 73 | 0 | 0.0 | 0.0 | 0.00 | 0.00 | 0.00 | 95 | 1013.9 |
| 20260903112530 | 73 | 0 | 0.0 | 0.0 | 0.00 | 0.00 | 0.00 | 95 | 1013.9 |
| 20260903112030 | 74 | 0 | 0.0 | 0.0 | 0.00 | 0.00 | 0.00 | 94 | 1013.7 |
| 20260903111555 | 74 | 0 | 0.0 | 0.0 | 0.00 | 0.00 | 0.00 | 94 | 1013.9 |
| 20260903111029 | 74 | 0 | 0.0 | 0.0 | 0.00 | 0.00 | 0.00 | 94 | 1013.7 |
| 20260903110526 | 74 | 0 | 0.0 | 0.0 | 0.00 | 0.00 | 0.00 | 94 | 1013.7 |
| 20260903110049 | 74 | 0 | 0.0 | 0.0 | 0.00 | 0.00 | 0.00 | 94 | 1013.9 |
| 20260903105530 | 74 | 0 | 0.0 | 0.0 | 0.00 | 0.00 | 0.00 | 94 | 1013.8 |
| 20260903105030 | 74 | 0 | 0.0 | 0.0 | 0.00 | 0.00 | 0.00 | 93 | 1013.7 |
| 20260903104553 | 74 | 0 | 0.0 | 0.9 | 0.00 | 0.00 | 0.00 | 93 | 1013.7 |
| 20260903104029 | 75 | 0 | 0.0 | 0.9 | 0.00 | 0.00 | 0.00 | 94 | 1013.8 |
| 20260903103529 | 74 | 0 | 0.0 | 0.9 | 0.00 | 0.00 | 0.00 | 94 | 1013.7 |
| 20260903103044 | 74 | 0 | 0.0 | 0.9 | 0.00 | 0.00 | 0.00 | 95 | 1013.7 |
| 20260903102529 | 74 | 0 | 0.0 | 0.9 | 0.00 | 0.00 | 0.00 | 95 | 1013.8 |